[[{"header":{"parameterUnit":"m.s-1","parameterCategory":1,"la1":30.2991,"la2":30.254,"lo1":-89.0895,"lo2":-89.0444,"dy":0.0017,"dx":0.0017,"nx":28,"ny":28,"refTime":"2025-04-29T09:00:00:Z","depth":0,"parameterNumber":2,"parameterNumberName":"U-component_of_WINDS"},"data":[0,0,0,0,0,0,0,0,0,0,0,0,0,0,0,0,0,0,0,0,0,0,0,0,0,0,0,0,0,0,0,0,0,0,0,0,0,0,0,0,0,0,0,0,0,0,0,0,0,0,0,0,0,0,0,0,0,0,-1.7532,-1.7533,0,-1.7567,-1.7567,-1.7568,-1.7552,-1.7551,-1.755,-1.755,-1.7583,-1.7585,-1.7586,0,0,0,0,0,0,0,0,0,0,0,0,0,-1.7452,-1.7454,-1.7532,-1.7533,-1.7533,-1.7567,-1.7567,-1.7568,-1.7552,-1.7551,-1.755,-1.7549,-1.7583,-1.7585,-1.7587,0,0,0,0,0,0,0,0,0,0,0,0,0,-1.7487,-1.7454,-1.7532,-1.753,-1.753,-1.7567,-1.7567,-1.7568,-1.7552,-1.7551,-1.755,-1.7549,-1.7582,-1.7584,-1.7587,-1.7628,0,0,-1.7595,-1.7596,0,0,0,0,0,0,0,0,-1.7485,-1.749,-1.753,-1.753,-1.753,-1.7554,-1.7551,-1.7588,-1.7553,-1.7544,-1.755,-1.7548,-1.7574,-1.7577,-1.7587,-1.763,-1.7631,-1.7595,-1.7596,-1.7597,-1.7598,0,0,0,0,0,0,0,-1.7482,-1.7488,-1.7546,-1.753,-1.753,-1.7526,-1.753,-1.7558,-1.7566,-1.7544,-1.7543,-1.7548,-1.7574,-1.7584,-1.7587,-1.7632,-1.7595,-1.7597,-1.7599,-1.76,-1.7711,-1.7712,0,0,0,0,0,0,-1.748,-1.7486,-1.7545,-1.7547,-1.7504,-1.7529,-1.7533,-1.7547,-1.7565,-1.7567,-1.7549,-1.7547,-1.758,-1.7584,-1.7588,-1.7638,-1.7597,-1.76,-1.7601,-1.7709,-1.7711,-1.7713,0,0,0,0,0,0,-1.7479,-1.7486,-1.7543,-1.7516,-1.7523,-1.7532,-1.7548,-1.7549,-1.7559,-1.7569,-1.757,-1.7558,-1.758,-1.7585,-1.7619,-1.7639,-1.7601,-1.7603,-1.7708,-1.771,-1.7712,-1.7738,0,0,0,0,0,0,-1.7476,-1.7485,-1.7501,-1.7517,-1.7525,-1.7573,-1.7549,-1.755,-1.7563,-1.7561,-1.7577,-1.7579,-1.7579,-1.7615,-1.7621,-1.7642,-1.7605,-1.7706,-1.7709,-1.7711,-1.7735,-1.7741,-1.7746,0,0,0,0,0,-1.7474,-1.7506,-1.7502,-1.7509,-1.7545,-1.7575,-1.7579,-1.7579,-1.7565,-1.7581,-1.7588,-1.7578,-1.7636,-1.7618,-1.7625,-1.7647,-1.7705,-1.7708,-1.7711,-1.7733,-1.774,-1.7745,0,0,0,0,0,0,-1.7492,-1.7508,-1.7504,-1.7543,-1.7558,-1.7572,-1.7592,-1.7586,-1.7605,-1.7602,-1.7601,-1.7605,-1.764,-1.7647,-1.7627,-1.7688,-1.7668,-1.7673,-1.7683,-1.7689,-1.7694,-1.7691,-1.7607,0,0,0,0,0,-1.7501,-1.7524,-1.7537,-1.757,-1.7578,-1.7584,-1.7597,-1.7596,-1.7611,-1.7617,-1.7625,-1.764,-1.7662,-1.7676,-1.7696,-1.7736,-1.774,-1.7755,-1.776,-1.7764,-1.7768,-1.7791,-1.7798,-1.7723,-1.7723,-1.7723,0,0,-1.7519,-1.7531,-1.7545,-1.7574,-1.7585,-1.7609,-1.7589,-1.7615,-1.7632,-1.762,-1.7653,-1.766,-1.7676,-1.7714,-1.7731,-1.7721,-1.779,-1.7768,-1.7772,-1.7773,-1.7795,-1.7802,-1.7808,-1.7726,-1.7725,-1.7725,0,0,-1.7564,-1.7575,-1.7604,-1.7616,-1.7634,-1.7638,-1.7645,-1.7661,-1.7665,-1.7699,-1.769,-1.7711,-1.7748,-1.776,-1.7771,-1.7822,-1.7814,-1.7828,-1.7855,-1.7877,-1.7883,-1.7888,-1.7906,-1.7913,-1.7832,-1.7833,-1.7833,0,-1.7583,-1.7619,-1.762,-1.7647,-1.766,-1.7651,-1.7681,-1.7692,-1.7715,-1.7725,-1.7713,-1.776,-1.777,-1.7811,-1.7824,-1.7833,-1.7841,-1.7826,-1.7882,-1.7887,-1.7892,-1.791,-1.7916,-1.7834,-1.7834,-1.7834,-1.7834,0,-1.7643,-1.7668,-1.769,-1.7714,-1.7729,-1.7757,-1.7762,-1.7777,-1.7775,-1.778,-1.7814,-1.7826,-1.7849,-1.7859,-1.7857,-1.79,-1.7893,-1.7882,-1.7861,-1.7901,-1.7917,-1.7924,-1.7837,-1.7836,-1.7835,-1.7835,0,0,-1.77,-1.7725,-1.7732,-1.7743,-1.7763,-1.7782,-1.781,-1.7833,-1.7847,-1.7863,-1.7887,-1.7919,-1.7909,-1.7922,-1.7921,-1.794,-1.798,-1.7927,-1.7927,-1.7936,-1.8029,-1.8037,-1.8045,-1.7975,-1.7977,-1.7978,-1.8027,0,-1.7747,-1.7796,-1.7798,-1.7843,-1.7866,-1.7859,-1.7883,-1.7897,-1.7903,-1.7924,-1.793,-1.7953,-1.7938,-1.7945,-1.7964,-1.7971,-1.7999,-1.7968,-1.7997,-1.7998,-1.7993,-1.8053,-1.8062,-1.8108,-1.8034,-1.8035,-1.8036,0,-1.7808,-1.7827,-1.7875,-1.7892,-1.7902,-1.7924,-1.7946,-1.7965,-1.7982,-1.7984,-1.7999,-1.7996,-1.8024,-1.8003,-1.8042,-1.8021,-1.8033,-1.8038,-1.804,-1.8043,-1.8019,-1.8058,-1.8123,-1.813,-1.8046,-1.8045,-1.8044,0,-1.7845,-1.7883,-1.7917,-1.7926,-1.7947,-1.7963,-1.7972,-1.7987,-1.8001,-1.802,-1.8029,-1.8051,-1.8063,-1.808,-1.8082,-1.8067,-1.8122,-1.8101,-1.8125,-1.8125,-1.8137,-1.8136,-1.8205,-1.8144,-1.8144,-1.8144,-1.8144,0,-1.7897,-1.7926,-1.7934,-1.7954,-1.7987,-1.7989,-1.8022,-1.8029,-1.8043,-1.8065,-1.806,-1.8081,-1.8083,-1.8104,-1.8106,-1.8138,-1.8144,-1.8147,-1.8147,-1.8147,-1.8147,-1.8155,-1.8152,-1.8146,-1.8146,-1.8145,-1.8145,0,-1.7944,-1.795,-1.7986,-1.8003,-1.8008,-1.8032,-1.8046,-1.8066,-1.8071,-1.8099,-1.8106,-1.8115,-1.814,-1.8144,-1.8173,-1.8174,-1.8213,-1.821,-1.8208,-1.8207,-1.8232,-1.8229,-1.8308,-1.8319,-1.8251,-1.8252,-1.8252,0,-1.7977,-1.7999,-1.8019,-1.8034,-1.8044,-1.8068,-1.8083,-1.8085,-1.8101,-1.8122,-1.8139,-1.8164,-1.8183,-1.8223,-1.8232,-1.8254,-1.8252,-1.8278,-1.8255,-1.8255,-1.8252,-1.8251,-1.8254,-1.8282,-1.8283,-1.8284,-1.8284,0,-1.8034,-1.8037,-1.8058,-1.8082,-1.81,-1.8118,-1.8135,-1.8147,-1.8152,-1.817,-1.8196,-1.8211,-1.8241,-1.8266,-1.8288,-1.8297,-1.8292,-1.8291,-1.8298,-1.8299,-1.8297,-1.8299,-1.822,-1.8289,-1.8289,-1.8288,-1.8288,-1.8288,-1.8076,-1.8096,-1.8113,-1.8138,-1.8151,-1.8168,-1.8187,-1.8196,-1.8218,-1.8243,-1.8243,-1.8272,-1.8288,-1.8318,-1.8328,-1.835,-1.8342,-1.8352,-1.8354,-1.8357,-1.8359,-1.8293,-1.8354,-1.8354,-1.8354,-1.8354,-1.8354,0,-1.8133,-1.8145,-1.8167,-1.8192,-1.8212,-1.8205,-1.8224,-1.8241,-1.8266,-1.8282,-1.8302,-1.8332,-1.8356,-1.8367,-1.839,-1.8406,-1.8404,-1.8412,-1.8411,-1.8413,-1.8365,-1.8357,-1.8413,-1.8413,-1.8413,-1.8413,-1.8413,-1.8413,-1.8166,-1.82,-1.8204,-1.8245,-1.8256,-1.8284,-1.8296,-1.8311,-1.8324,-1.8358,-1.8378,-1.8385,-1.8399,-1.8424,-1.8446,-1.8448,-1.8457,-1.8467,-1.8468,-1.8423,-1.8417,-1.8411,-1.8403,-1.8468,-1.8469,-1.8514,-1.8515,-1.8515]},{"header":{"parameterUnit":"m.s-1","parameterCategory":1,"la1":30.2991,"la2":30.254,"lo1":-89.0895,"lo2":-89.0444,"dy":0.0017,"dx":0.0017,"nx":28,"ny":28,"refTime":"2025-04-29T09:00:00:Z","depth":0,"parameterNumber":3,"parameterNumberName":"V-component_of_WINDS"},"data":[0,0,0,0,0,0,0,0,0,0,0,0,0,0,0,0,0,0,0,0,0,0,0,0,0,0,0,0,0,0,0,0,0,0,0,0,0,0,0,0,0,0,0,0,0,0,0,0,0,0,0,0,0,0,0,0,0,0,2.1823,2.1823,0,2.178,2.1779,2.1779,2.1733,2.1733,2.1732,2.1731,2.1683,2.1682,2.1681,0,0,0,0,0,0,0,0,0,0,0,0,0,2.1864,2.1864,2.1823,2.1823,2.1822,2.178,2.1779,2.1779,2.1733,2.1733,2.1732,2.1731,2.1683,2.1682,2.1681,0,0,0,0,0,0,0,0,0,0,0,0,0,2.1836,2.1864,2.1823,2.1795,2.1792,2.178,2.1779,2.1779,2.1734,2.1733,2.1732,2.1731,2.1683,2.1682,2.1681,2.1693,0,0,2.1678,2.1678,0,0,0,0,0,0,0,0,2.1838,2.1835,2.1799,2.1797,2.1793,2.1761,2.1776,2.175,2.1734,2.1755,2.1731,2.173,2.1709,2.1706,2.17,2.1691,2.1689,2.1678,2.1677,2.1677,2.1676,0,0,0,0,0,0,0,2.184,2.1836,2.1806,2.1799,2.1795,2.1783,2.1778,2.1771,2.1738,2.1753,2.175,2.1746,2.1707,2.1701,2.1698,2.1688,2.1678,2.1677,2.1676,2.1676,2.1687,2.1688,0,0,0,0,0,0,2.1847,2.1838,2.1807,2.1805,2.1814,2.1783,2.1777,2.1772,2.1738,2.1732,2.1747,2.1744,2.1703,2.17,2.1696,2.1708,2.1677,2.1676,2.1675,2.1686,2.1687,2.1688,0,0,0,0,0,0,2.1848,2.1844,2.1809,2.1821,2.1815,2.1783,2.1778,2.1772,2.1765,2.1733,2.1726,2.1746,2.1702,2.1698,2.1695,2.1706,2.1675,2.1674,2.1685,2.1687,2.1688,2.1733,0,0,0,0,0,0,2.1849,2.1845,2.185,2.1821,2.1815,2.1809,2.1779,2.1772,2.1764,2.176,2.1731,2.1725,2.1701,2.1697,2.1694,2.1704,2.1673,2.1684,2.1686,2.1688,2.173,2.1735,2.174,0,0,0,0,0,2.1851,2.1863,2.185,2.1847,2.1821,2.181,2.1806,2.178,2.1765,2.177,2.1749,2.1726,2.1706,2.1697,2.1693,2.1703,2.1683,2.1685,2.1687,2.1728,2.1734,2.174,0,0,0,0,0,0,2.1893,2.1859,2.1844,2.1848,2.1833,2.1803,2.1807,2.1788,2.1775,2.1771,2.1738,2.1732,2.1732,2.1717,2.1708,2.1713,2.1691,2.1693,2.1723,2.1729,2.1734,2.1737,2.1673,0,0,0,0,0,2.1903,2.1898,2.1869,2.1875,2.1868,2.1839,2.1834,2.1815,2.1797,2.1789,2.1768,2.175,2.174,2.1734,2.1722,2.1728,2.172,2.1733,2.1738,2.1742,2.1744,2.1746,2.1751,2.1695,2.1695,2.1695,0,0,2.1923,2.1904,2.1903,2.1883,2.1869,2.1864,2.1834,2.183,2.1826,2.1788,2.1784,2.1768,2.1746,2.1748,2.1747,2.1735,2.1758,2.1745,2.1749,2.1748,2.1748,2.1754,2.1758,2.1697,2.1697,2.1696,0,0,2.1957,2.1943,2.1947,2.1933,2.1912,2.1893,2.1894,2.1867,2.1856,2.1852,2.1824,2.1818,2.1801,2.1786,2.1777,2.1807,2.1785,2.1804,2.183,2.1832,2.1836,2.184,2.185,2.1855,2.1805,2.1805,2.1805,0,2.1985,2.1977,2.1951,2.1949,2.1941,2.1908,2.1912,2.1899,2.1876,2.187,2.1858,2.1836,2.1819,2.1816,2.1824,2.1817,2.1817,2.1807,2.1838,2.1841,2.1844,2.1854,2.1858,2.1808,2.1808,2.1807,2.1807,0,2.2012,2.2007,2.2013,2.1992,2.1985,2.1985,2.1958,2.1953,2.1936,2.1918,2.1914,2.1892,2.1876,2.1874,2.1856,2.1869,2.1862,2.1844,2.1821,2.1853,2.1861,2.1865,2.1811,2.181,2.181,2.1809,0,0,2.2071,2.2037,2.2039,2.2029,2.2004,2.2,2.1999,2.1985,2.1981,2.1966,2.1964,2.1951,2.1934,2.1923,2.1903,2.1905,2.193,2.1887,2.1886,2.1895,2.1944,2.1957,2.1962,2.1916,2.1917,2.1917,2.1945,0,2.2101,2.2099,2.2075,2.2079,2.2074,2.2044,2.2043,2.2027,2.201,2.2003,2.1984,2.1975,2.1954,2.1947,2.1948,2.1927,2.194,2.1925,2.1913,2.1913,2.1919,2.1967,2.1981,2.2008,2.1949,2.1949,2.195,0,2.2135,2.2124,2.2128,2.2103,2.21,2.21,2.2085,2.2079,2.206,2.2048,2.2037,2.2015,2.2011,2.199,2.1984,2.1975,2.1969,2.1958,2.1958,2.1956,2.1933,2.1965,2.2017,2.2021,2.1954,2.1954,2.1954,0,2.2178,2.2163,2.2164,2.2157,2.2128,2.2129,2.2117,2.2097,2.209,2.2077,2.2072,2.2058,2.205,2.2039,2.2014,2.2001,2.2011,2.1988,2.2,2.2,2.2003,2.2003,2.2054,2.1999,2.1999,2.1999,2.1999,0,2.2213,2.2217,2.2183,2.2183,2.2186,2.2159,2.2162,2.2147,2.213,2.2126,2.2098,2.2095,2.2062,2.2054,2.2034,2.2033,2.2029,2.2018,2.2013,2.2021,2.2022,2.2016,2.2013,2.2,2.2,2.2,2.2,0,2.2261,2.2239,2.2237,2.2211,2.2205,2.2208,2.2185,2.2184,2.2166,2.2161,2.2159,2.213,2.212,2.2094,2.2076,2.2063,2.2067,2.2056,2.2073,2.207,2.2084,2.2083,2.2132,2.2137,2.208,2.208,2.2081,0,2.2286,2.2288,2.2262,2.2259,2.2248,2.2242,2.2236,2.2208,2.2202,2.2182,2.2183,2.2171,2.216,2.2146,2.2122,2.2109,2.2098,2.2117,2.2096,2.2104,2.2098,2.2099,2.2099,2.2121,2.2122,2.2122,2.2123,0,2.2331,2.232,2.2312,2.23,2.2293,2.2282,2.227,2.2268,2.2237,2.2232,2.2222,2.2214,2.2197,2.2186,2.2169,2.2155,2.2134,2.213,2.2132,2.214,2.2149,2.2144,2.2086,2.2128,2.2128,2.2128,2.2127,2.2127,2.2368,2.2369,2.2351,2.2343,2.2331,2.232,2.2318,2.23,2.2292,2.2278,2.2262,2.2254,2.2235,2.2211,2.2198,2.2191,2.218,2.2183,2.2184,2.2185,2.2188,2.2151,2.2188,2.2188,2.2188,2.2187,2.2187,0,2.2412,2.2399,2.2392,2.2376,2.237,2.2352,2.2337,2.2333,2.2327,2.2312,2.2302,2.2291,2.228,2.2256,2.2243,2.2242,2.2231,2.2239,2.2239,2.2236,2.2199,2.2199,2.2247,2.2247,2.2247,2.2247,2.2247,2.2247,2.2434,2.2435,2.2421,2.2416,2.2403,2.2396,2.2389,2.2379,2.2366,2.2356,2.2347,2.2332,2.2314,2.2299,2.2288,2.2281,2.2277,2.2288,2.2278,2.2244,2.2238,2.2233,2.2232,2.2287,2.2287,2.2315,2.2315,2.2315]}]]